Grand Marais, MN

12:19 AM CDT on September 19, 2019 (GMT -0500)
Grand Marais

Weather History for KGNA - July, 2019

Change the Weather History Date:

Monday, July 15, 2019

  Actual Average (WUND) Record (WUND)
Temperature  
Mean Temperature 62 °F -  
Max Temperature 73 °F - - (-1)
Min Temperature 55 °F - - (-1)
Degree Days  
Heating Degree Days 3    
Growing Degree Days 12 (Base 50)    
Moisture  
Dew Point 60 °F    
Average Humidity 90    
Maximum Humidity 100    
Minimum Humidity 78    
Precipitation  
Precipitation 0.50 in - - ()
Sea Level Pressure  
Sea Level Pressure 29.80 in    
Wind  
Wind Speed 1 mph (East)    
Max Wind Speed 6 mph    
Max Gust Speed 25 mph    
Averages and records for this station are not official NWS values.
T = Trace of Precipitation, MM = Missing Value Source: NWS Daily Summary

Daily Weather History Graph

Daily Weather History Graph

Search for Another Location

Airport or City:

Astronomy

Jul. 15, 2019 Rise Set
Actual Time 5:18 AM CDT 8:55 PM CDT
Civil Twilight 4:39 AM CDT 9:34 PM CDT
Nautical Twilight 3:46 AM CDT 10:26 PM CDT
Astronomical Twilight 2:34 AM CDT 11:38 PM CDT
Moon 8:14 PM CDT (7/15) 4:04 AM CDT (7/15)
Length of Visible Light 16h 55m
Length of Day
15h 37m
Waxing Gibbous, 99% of the Moon is Illuminated
Jul 15
Waxing Gibbous
Jul 16
Full
Jul 24
Last Quarter
Jul 31
New
Aug 7
First Quarter

Hourly Weather History & Observations

Time (CDT) Temp. Dew Point Humidity Pressure Visibility Wind Dir Wind Speed Gust Speed Precip Events Conditions
12:56 AM 60.1 °F 54.0 °F 80% 29.90 in - Calm Calm - N/A   Unknown
2:56 AM 62.1 °F 57.9 °F 86% 29.89 in - Calm Calm - N/A   Unknown
3:56 AM 59.0 °F 55.9 °F 90% 29.91 in - Variable 4.6 mph - N/A   Unknown
4:56 AM 55.0 °F 52.0 °F 89% 29.91 in - Calm Calm - N/A   Unknown
5:56 AM 57.9 °F 55.0 °F 90% 29.89 in - Calm Calm - N/A   Unknown
6:56 AM 55.9 °F 55.0 °F 97% 29.88 in - Calm Calm - N/A   Unknown
7:56 AM 60.1 °F 57.0 °F 90% 29.88 in - Calm Calm - N/A   Unknown
8:56 AM 64.0 °F 60.1 °F 87% 29.86 in - Calm Calm - N/A   Unknown
9:56 AM 63.0 °F 60.1 °F 90% 29.85 in - Calm Calm - N/A   Unknown
10:56 AM 66.9 °F 63.0 °F 87% 29.82 in - Calm Calm - N/A   Unknown
11:56 AM 66.0 °F 60.1 °F 81% 29.81 in - Variable 3.5 mph - N/A   Unknown
1:56 PM 68.0 °F 61.0 °F 78% 29.79 in - East 3.5 mph - N/A   Unknown
2:56 PM 68.0 °F 61.0 °F 78% 29.73 in - East 4.6 mph - N/A   Unknown
3:56 PM 66.0 °F 60.1 °F 81% 29.70 in - East 3.5 mph - N/A   Unknown
4:56 PM 69.1 °F 66.0 °F 90% 29.77 in - Variable 5.8 mph 25.3 mph 0.06 in   Unknown
5:56 PM 63.0 °F 63.0 °F 100% 29.72 in - Variable 3.5 mph - 0.41 in   Unknown
6:56 PM 64.0 °F 64.0 °F 100% 29.67 in - Calm Calm - 0.03 in   Unknown
7:56 PM 62.1 °F 61.0 °F 96% 29.70 in - Calm Calm - N/A   Unknown
8:56 PM 62.1 °F 62.1 °F 100% 29.72 in - Calm Calm - N/A   Unknown
9:56 PM 62.1 °F 61.0 °F 96% 29.74 in - Calm Calm - N/A   Unknown
10:56 PM 62.1 °F 62.1 °F 100% 29.73 in - Calm Calm - N/A   Unknown
11:56 PM 62.1 °F 61.0 °F 96% 29.74 in - Calm Calm - N/A   Unknown